TimeEST,TemperatureF,Dew PointF,Humidity,Sea Level PressureIn,VisibilityMPH,Wind Direction,Wind SpeedMPH,Gust SpeedMPH,PrecipitationIn,Events,Conditions,WindDirDegrees,DateUTC
12:15 AM,32.9,32.9,100,29.91,1.8,North,-9999.0,-,N/A,Snow,Light Snow,0,2013-03-01 05:15:00
12:35 AM,33.1,33.1,100,29.91,1.8,North,-9999.0,-,N/A,Snow,Light Snow,0,2013-03-01 05:35:00
12:55 AM,33.1,33.1,100,29.91,2.0,North,-9999.0,-,N/A,Snow,Light Snow,0,2013-03-01 05:55:00
1:15 AM,33.1,33.1,100,29.91,3.0,North,-9999.0,-,N/A,Snow,Light Snow,0,2013-03-01 06:15:00
1:35 AM,33.3,33.3,100,29.91,2.5,North,-9999.0,-,N/A,Snow,Light Snow,0,2013-03-01 06:35:00
1:55 AM,33.3,33.3,100,29.91,2.5,North,-9999.0,-,N/A,Snow,Light Snow,0,2013-03-01 06:55:00
2:15 AM,33.3,33.3,100,29.91,2.5,North,-9999.0,-,N/A,Snow,Light Snow,0,2013-03-01 07:15:00
2:35 AM,33.3,33.3,100,29.90,2.5,North,-9999.0,-,N/A,Snow,Light Snow,0,2013-03-01 07:35:00
2:55 AM,33.3,33.3,100,29.89,2.5,North,-9999.0,-,N/A,Snow,Light Snow,0,2013-03-01 07:55:00
3:15 AM,33.3,33.3,100,29.89,2.0,North,-9999.0,-,N/A,Snow,Light Snow,0,2013-03-01 08:15:00
3:35 AM,33.3,33.3,100,29.89,3.0,North,-9999.0,-,N/A,Snow,Light Snow,0,2013-03-01 08:35:00
3:55 AM,33.3,33.3,100,29.89,1.5,North,-9999.0,-,N/A,Snow,Light Snow,0,2013-03-01 08:55:00
4:15 AM,33.4,33.4,100,29.89,5.0,North,-9999.0,-,N/A,Snow,Light Snow,0,2013-03-01 09:15:00
4:35 AM,33.4,33.4,100,29.88,4.0,North,-9999.0,-,N/A,Snow,Light Snow,0,2013-03-01 09:35:00
4:55 AM,33.3,33.3,100,29.89,4.0,North,-9999.0,-,N/A,Snow,Light Snow,0,2013-03-01 09:55:00
5:15 AM,33.4,33.4,100,29.89,5.0,North,-9999.0,-,N/A,Snow,Light Snow,0,2013-03-01 10:15:00
5:35 AM,33.4,33.4,100,29.89,1.5,North,-9999.0,-,N/A,Snow,Light Snow,0,2013-03-01 10:35:00
5:55 AM,33.3,33.3,100,29.90,3.0,North,-9999.0,-,N/A,Snow,Light Snow,0,2013-03-01 10:55:00
6:15 AM,33.3,33.3,100,29.90,7.0,North,-9999.0,-,N/A,,Overcast,0,2013-03-01 11:15:00
6:35 AM,33.4,33.4,100,29.91,7.0,North,-9999.0,-,N/A,Snow,Light Snow,0,2013-03-01 11:35:00
7:15 AM,33.4,33.4,100,29.91,5.0,North,-9999.0,-,N/A,Snow,Light Snow,0,2013-03-01 12:15:00
7:35 AM,33.4,33.4,100,29.91,3.0,North,-9999.0,-,N/A,Snow,Light Snow,0,2013-03-01 12:35:00
8:35 AM,34.3,34.2,99,29.92,5.0,North,-9999.0,-,N/A,,Overcast,0,2013-03-01 13:35:00
8:55 AM,34.0,33.6,99,29.93,4.0,North,-9999.0,-,N/A,Snow,Light Snow,0,2013-03-01 13:55:00
9:15 AM,34.2,33.3,97,29.93,7.0,North,-9999.0,-,N/A,Snow,Light Snow,0,2013-03-01 14:15:00
9:35 AM,34.2,33.3,97,29.94,3.0,North,-9999.0,-,N/A,Snow,Light Snow,0,2013-03-01 14:35:00
10:15 AM,34.7,32.9,93,29.94,10.0,North,-9999.0,-,N/A,,Overcast,0,2013-03-01 15:15:00
10:35 AM,35.1,32.4,90,29.94,10.0,North,-9999.0,-,N/A,,Overcast,0,2013-03-01 15:35:00
10:55 AM,35.1,32.0,89,29.94,10.0,North,-9999.0,-,N/A,,Overcast,0,2013-03-01 15:55:00
11:15 AM,35.6,32.4,88,29.94,10.0,North,-9999.0,-,N/A,,Overcast,0,2013-03-01 16:15:00
11:35 AM,35.6,32.2,87,29.95,10.0,North,-9999.0,-,N/A,,Overcast,0,2013-03-01 16:35:00
12:15 PM,37.0,32.5,84,29.95,10.0,North,-9999.0,-,N/A,,Overcast,0,2013-03-01 17:15:00
12:35 PM,36.7,32.2,84,29.94,10.0,North,-9999.0,-,N/A,,Overcast,0,2013-03-01 17:35:00
12:55 PM,36.5,32.4,85,29.94,10.0,North,-9999.0,-,N/A,,Overcast,0,2013-03-01 17:55:00
1:15 PM,36.0,32.4,87,29.94,10.0,North,-9999.0,-,N/A,,Overcast,0,2013-03-01 18:15:00
1:35 PM,36.3,32.0,84,29.93,10.0,North,-9999.0,-,N/A,,Overcast,0,2013-03-01 18:35:00
2:15 PM,35.8,31.3,84,29.93,10.0,North,-9999.0,-,N/A,,Overcast,0,2013-03-01 19:15:00
2:35 PM,36.1,31.8,84,29.92,10.0,North,-9999.0,-,N/A,,Overcast,0,2013-03-01 19:35:00
2:55 PM,35.8,31.1,83,29.93,10.0,North,-9999.0,-,N/A,,Overcast,0,2013-03-01 19:55:00
3:15 PM,35.6,30.7,82,29.93,10.0,North,-9999.0,-,N/A,,Overcast,0,2013-03-01 20:15:00
3:35 PM,35.8,30.7,82,29.92,10.0,North,-9999.0,-,N/A,,Overcast,0,2013-03-01 20:35:00
3:55 PM,36.0,31.1,82,29.92,10.0,North,-9999.0,-,N/A,,Overcast,0,2013-03-01 20:55:00
4:15 PM,35.8,31.6,85,29.93,7.0,North,-9999.0,-,N/A,,Overcast,0,2013-03-01 21:15:00
4:35 PM,35.6,31.5,85,29.93,10.0,North,-9999.0,-,N/A,,Overcast,0,2013-03-01 21:35:00
4:55 PM,35.6,31.5,85,29.93,10.0,North,-9999.0,-,N/A,,Overcast,0,2013-03-01 21:55:00
5:15 PM,35.2,31.3,85,29.93,10.0,North,-9999.0,-,N/A,Snow,Light Snow,0,2013-03-01 22:15:00
5:35 PM,35.4,31.8,87,29.93,10.0,North,-9999.0,-,N/A,,Overcast,0,2013-03-01 22:35:00
5:55 PM,35.1,31.8,88,29.94,10.0,North,-9999.0,-,N/A,,Overcast,0,2013-03-01 22:55:00
6:15 PM,35.1,32.0,89,29.95,10.0,North,-9999.0,-,N/A,Snow,Light Snow,0,2013-03-01 23:15:00
6:35 PM,34.7,32.0,90,29.95,7.0,North,-9999.0,-,N/A,Snow,Light Snow,0,2013-03-01 23:35:00
6:55 PM,34.5,32.0,90,29.96,5.0,North,-9999.0,-,N/A,Snow,Light Snow,0,2013-03-01 23:55:00
7:15 PM,34.2,32.0,92,29.96,10.0,North,-9999.0,-,N/A,,Overcast,0,2013-03-02 00:15:00
7:35 PM,33.8,32.0,93,29.96,10.0,North,-9999.0,-,N/A,Snow,Light Snow,0,2013-03-02 00:35:00
7:55 PM,32.7,32.0,97,29.96,10.0,North,-9999.0,-,N/A,,Scattered Clouds,0,2013-03-02 00:55:00
8:15 PM,32.4,32.0,99,29.96,7.0,North,-9999.0,-,N/A,Snow,Light Snow,0,2013-03-02 01:15:00
8:35 PM,32.5,32.0,98,29.96,10.0,North,-9999.0,-,N/A,,Overcast,0,2013-03-02 01:35:00
9:15 PM,32.5,32.0,98,29.96,10.0,North,-9999.0,-,N/A,,Overcast,0,2013-03-02 02:15:00
9:35 PM,33.1,30.9,92,29.97,10.0,North,-9999.0,-,N/A,,Overcast,0,2013-03-02 02:35:00
9:55 PM,32.4,31.1,95,29.96,10.0,North,-9999.0,-,N/A,,Overcast,0,2013-03-02 02:55:00
10:15 PM,32.5,31.5,96,29.96,10.0,North,-9999.0,-,N/A,,Overcast,0,2013-03-02 03:15:00
10:55 PM,33.1,30.6,90,29.96,10.0,North,-9999.0,-,N/A,,Overcast,0,2013-03-02 03:55:00
11:15 PM,33.3,30.2,89,29.96,10.0,North,-9999.0,-,N/A,,Overcast,0,2013-03-02 04:15:00
11:35 PM,33.1,30.4,90,29.96,10.0,North,-9999.0,-,N/A,,Overcast,0,2013-03-02 04:35:00
11:55 PM,33.1,30.4,90,29.95,10.0,North,-9999.0,-,N/A,,Overcast,0,2013-03-02 04:55:00